When you browse on this site, cookies collect data to enhance your experience and personalize the content and advertising you see.
Visit our Privacy Policy to learn more. By continuing to use the site, you agree to this use of cookies and data.
  • In Switzerland
  • List of Countries
  • For 7 days
  • Water Temperature
  • Satellite Maps
  • Weather Map
  • Weather Widgets
  • user-avatar
    Login

    Hourly Weather Plavneve

    Today, 22 July, Monday

    Time Temperature Precipitation Wind Pressure Humidity
    00:00 +25°C° 0 mm 1 mps 761 mmHg 54%
    01:00 +22°C° 0 mm 0 mps 761 mmHg 56%
    02:00 +22°C° 0 mm 0 mps 760 mmHg 57%
    03:00 +21°C° 0 mm 0 mps 760 mmHg 58%
    04:00 +21°C° 0 mm 0 mps 760 mmHg 58%
    05:00 +21°C° 0 mm 0 mps 760 mmHg 59%
    06:00 +23°C° 0 mm 0 mps 760 mmHg 53%
    07:00 +26°C° 0 mm 0 mps 760 mmHg 47%
    08:00 +28°C° 0 mm 0 mps 760 mmHg 42%
    09:00 +31°C° 0 mm 1 mps 760 mmHg 38%
    10:00 +32°C° 0 mm 1 mps 760 mmHg 35%
    11:00 +35°C° 0 mm 2 mps 760 mmHg 32%
    12:00 +34°C° 0 mm 3 mps 760 mmHg 33%
    13:00 +34°C° 0 mm 3 mps 760 mmHg 34%
    14:00 +34°C° 0 mm 4 mps 759 mmHg 36%
    15:00 +34°C° 0 mm 4 mps 759 mmHg 38%
    16:00 +34°C° 0 mm 4 mps 759 mmHg 40%
    17:00 +33°C° 0 mm 4 mps 759 mmHg 42%
    18:00 +32°C° 0.1 mm 4 mps 759 mmHg 47%
    19:00 +29°C° 0.1 mm 3 mps 759 mmHg 53%
    20:00 +27°C° 0.1 mm 3 mps 759 mmHg 58%
    21:00 +26°C° 0.6 mm 2 mps 759 mmHg 64%
    22:00 +25°C° 0.6 mm 2 mps 759 mmHg 71%
    23:00 +24°C° 0.6 mm 2 mps 759 mmHg 77%

    Tomorrow, 23 July, Tuesday

    Time Temperature Precipitation Wind Pressure Humidity
    00:00 +23°C° 1 mm 2 mps 759 mmHg 79%
    01:00 +23°C° 1 mm 2 mps 759 mmHg 82%
    02:00 +23°C° 1 mm 2 mps 759 mmHg 84%
    03:00 +23°C° 0.1 mm 2 mps 759 mmHg 84%
    04:00 +21°C° 0.1 mm 3 mps 759 mmHg 84%
    05:00 +21°C° 0.1 mm 4 mps 759 mmHg 83%
    06:00 +22°C° 0 mm 4 mps 759 mmHg 79%
    07:00 +22°C° 0 mm 4 mps 759 mmHg 75%
    08:00 +23°C° 0 mm 4 mps 759 mmHg 70%
    09:00 +25°C° 0.5 mm 4 mps 759 mmHg 64%
    10:00 +26°C° 0.5 mm 5 mps 759 mmHg 57%
    11:00 +27°C° 0.5 mm 5 mps 759 mmHg 51%
    12:00 +28°C° 0 mm 5 mps 758 mmHg 46%
    13:00 +29°C° 0 mm 5 mps 758 mmHg 42%
    14:00 +29°C° 0 mm 4 mps 758 mmHg 38%
    15:00 +29°C° 0 mm 5 mps 758 mmHg 37%
    16:00 +29°C° 0 mm 5 mps 758 mmHg 37%
    17:00 +29°C° 0 mm 5 mps 758 mmHg 37%
    18:00 +27°C° 0 mm 4 mps 758 mmHg 42%
    19:00 +26°C° 0 mm 4 mps 758 mmHg 47%
    20:00 +23°C° 0 mm 4 mps 757 mmHg 52%
    21:00 +22°C° 0 mm 4 mps 758 mmHg 55%
    22:00 +21°C° 0 mm 4 mps 758 mmHg 58%
    23:00 +20°C° 0 mm 4 mps 758 mmHg 61%

    Day after tomorrow, 24 July, Wednesday

    Time Temperature Precipitation Wind Pressure Humidity
    00:00 +19°C° 0 mm 3 mps 758 mmHg 65%
    01:00 +19°C° 0 mm 3 mps 758 mmHg 70%
    02:00 +18°C° 0 mm 3 mps 758 mmHg 74%
    03:00 +17°C° 0 mm 3 mps 758 mmHg 75%
    04:00 +17°C° 0 mm 3 mps 758 mmHg 77%
    05:00 +17°C° 0 mm 3 mps 758 mmHg 78%
    06:00 +18°C° 0 mm 4 mps 758 mmHg 75%
    07:00 +19°C° 0 mm 4 mps 758 mmHg 71%
    08:00 +21°C° 0 mm 5 mps 758 mmHg 67%
    09:00 +22°C° 0.1 mm 5 mps 758 mmHg 64%
    10:00 +23°C° 0.1 mm 6 mps 757 mmHg 60%
    11:00 +26°C° 0.1 mm 6 mps 757 mmHg 56%
    12:00 +27°C° 0.1 mm 7 mps 757 mmHg 52%
    13:00 +28°C° 0.1 mm 7 mps 757 mmHg 48%
    14:00 +29°C° 0.1 mm 7 mps 757 mmHg 43%
    15:00 +29°C° 0 mm 7 mps 756 mmHg 45%
    16:00 +29°C° 0 mm 7 mps 756 mmHg 46%
    17:00 +28°C° 0 mm 7 mps 756 mmHg 48%
    18:00 +27°C° 0.1 mm 6 mps 756 mmHg 55%
    19:00 +25°C° 0.1 mm 5 mps 757 mmHg 62%
    20:00 +22°C° 0.1 mm 4 mps 757 mmHg 70%
    21:00 +22°C° 0 mm 4 mps 757 mmHg 73%
    22:00 +21°C° 0 mm 4 mps 757 mmHg 76%
    23:00 +20°C° 0 mm 4 mps 757 mmHg 78%

    25 July, Thursday

    Time Temperature Precipitation Wind Pressure Humidity
    00:00 +19°C° 0 mm 4 mps 757 mmHg 80%
    01:00 +19°C° 0 mm 4 mps 757 mmHg 81%
    02:00 +18°C° 0 mm 4 mps 757 mmHg 83%
    03:00 +18°C° 0 mm 4 mps 757 mmHg 83%
    04:00 +18°C° 0 mm 4 mps 757 mmHg 84%
    05:00 +18°C° 0 mm 4 mps 757 mmHg 85%
    06:00 +19°C° 0 mm 5 mps 758 mmHg 78%
    07:00 +21°C° 0 mm 6 mps 758 mmHg 71%
    08:00 +22°C° 0 mm 7 mps 758 mmHg 65%
    09:00 +23°C° 0.1 mm 6 mps 758 mmHg 62%
    10:00 +24°C° 0.1 mm 6 mps 758 mmHg 58%
    11:00 +26°C° 0.1 mm 6 mps 758 mmHg 55%
    12:00 +26°C° 0.4 mm 5 mps 758 mmHg 55%
    13:00 +26°C° 0.4 mm 5 mps 757 mmHg 54%
    14:00 +26°C° 0.4 mm 5 mps 757 mmHg 53%
    15:00 +26°C° 0.4 mm 5 mps 757 mmHg 55%
    16:00 +26°C° 0.4 mm 5 mps 757 mmHg 56%
    17:00 +26°C° 0.4 mm 6 mps 757 mmHg 58%
    18:00 +23°C° 0.4 mm 5 mps 757 mmHg 64%
    19:00 +22°C° 0.4 mm 5 mps 757 mmHg 71%
    20:00 +20°C° 0.4 mm 4 mps 757 mmHg 78%
    21:00 +20°C° 0 mm 4 mps 757 mmHg 81%
    22:00 +19°C° 0 mm 4 mps 757 mmHg 84%
    23:00 +18°C° 0 mm 4 mps 757 mmHg 86%

    26 July, Friday

    Time Temperature Precipitation Wind Pressure Humidity
    00:00 +18°C° 0 mm 4 mps 757 mmHg 88%
    01:00 +18°C° 0 mm 4 mps 757 mmHg 90%
    02:00 +18°C° 0 mm 4 mps 757 mmHg 92%
    03:00 +17°C° 0 mm 4 mps 757 mmHg 94%
    04:00 +17°C° 0 mm 4 mps 757 mmHg 95%
    05:00 +17°C° 0 mm 4 mps 757 mmHg 96%
    06:00 +19°C° 0 mm 5 mps 757 mmHg 88%
    07:00 +20°C° 0 mm 5 mps 757 mmHg 80%
    08:00 +22°C° 0 mm 5 mps 757 mmHg 72%
    09:00 +23°C° 0 mm 5 mps 757 mmHg 64%
    10:00 +26°C° 0 mm 5 mps 757 mmHg 56%
    11:00 +28°C° 0 mm 5 mps 757 mmHg 48%
    12:00 +29°C° 0.2 mm 4 mps 757 mmHg 47%
    13:00 +29°C° 0.2 mm 4 mps 756 mmHg 46%
    14:00 +29°C° 0.2 mm 4 mps 756 mmHg 45%
    15:00 +29°C° 0 mm 4 mps 756 mmHg 46%
    16:00 +29°C° 0 mm 4 mps 756 mmHg 47%
    17:00 +28°C° 0 mm 4 mps 756 mmHg 48%
    18:00 +27°C° 0.1 mm 4 mps 756 mmHg 58%
    19:00 +25°C° 0.1 mm 4 mps 756 mmHg 67%
    20:00 +22°C° 0.1 mm 4 mps 756 mmHg 76%
    21:00 +22°C° 0 mm 4 mps 756 mmHg 80%
    22:00 +21°C° 0 mm 4 mps 756 mmHg 84%
    23:00 +20°C° 0 mm 5 mps 757 mmHg 88%

    27 July, Saturday

    Time Temperature Precipitation Wind Pressure Humidity
    00:00 +20°C° 0 mm 4 mps 756 mmHg 88%
    01:00 +20°C° 0 mm 4 mps 756 mmHg 88%
    02:00 +19°C° 0 mm 4 mps 756 mmHg 88%
    03:00 +19°C° 0 mm 4 mps 756 mmHg 90%
    04:00 +19°C° 0 mm 4 mps 756 mmHg 92%
    05:00 +19°C° 0 mm 4 mps 756 mmHg 94%
    06:00 +20°C° 0 mm 4 mps 756 mmHg 85%
    07:00 +22°C° 0 mm 5 mps 756 mmHg 77%
    08:00 +25°C° 0 mm 5 mps 756 mmHg 69%
    09:00 +27°C° 0 mm 5 mps 756 mmHg 62%
    10:00 +28°C° 0 mm 6 mps 756 mmHg 54%
    11:00 +30°C° 0 mm 6 mps 756 mmHg 47%
    12:00 +32°C° 0 mm 5 mps 756 mmHg 44%
    13:00 +32°C° 0 mm 5 mps 756 mmHg 42%
    14:00 +33°C° 0 mm 5 mps 755 mmHg 39%
    15:00 +32°C° 0 mm 5 mps 755 mmHg 40%
    16:00 +32°C° 0 mm 5 mps 755 mmHg 40%
    17:00 +32°C° 0 mm 5 mps 755 mmHg 40%
    18:00 +29°C° 0 mm 5 mps 755 mmHg 46%
    19:00 +28°C° 0 mm 4 mps 755 mmHg 52%
    20:00 +26°C° 0 mm 4 mps 755 mmHg 59%
    21:00 +25°C° 0 mm 3 mps 756 mmHg 62%
    22:00 +24°C° 0 mm 3 mps 756 mmHg 65%
    23:00 +21°C° 0 mm 3 mps 756 mmHg 68%
    Show more